Caribou, ME

1:51 PM EDT on September 20, 2017 (GMT -0400)
Caribou Municipal

Weather History for KCAR - May, 2013

Change the Weather History Date:

Tuesday, May 14, 2013

  Actual Average Record
Temperature  
Mean Temperature 42 °F 51 °F  
Max Temperature 54 °F 62 °F 81 °F (1961)
Min Temperature 30 °F 40 °F 25 °F (1947)
Degree Days  
Heating Degree Days 23 14  
Month to date heating degree days 123 230  
Since 1 July heating degree days 8137 8996  
Cooling Degree Days 0 0  
Month to date cooling degree days 1 0  
Year to date cooling degree days 1 0  
Moisture  
Dew Point 30 °F    
Average Humidity 65    
Maximum Humidity 92    
Minimum Humidity 38    
Precipitation  
Precipitation T in 0.10 in 0.97 in (1960)
Month to date precipitation 1.09 1.38  
Year to date precipitation 9.60 11.47  
Snow  
Snow 0.00 in 0.00 in 2.70 in (2002)
Month to date snowfall 0.0 0.4  
Since 1 July snowfall 106.9 108.6  
Snow Depth 0.00 in    
Sea Level Pressure  
Sea Level Pressure 29.97 in    
Wind  
Wind Speed 5 mph (WNW)    
Max Wind Speed 15 mph    
Max Gust Speed 20 mph    
Visibility 10 miles    
Events      
T = Trace of Precipitation, MM = Missing Value Source: NWS Daily Summary

Daily Weather History Graph

Daily Weather History Graph

Search for Another Location

Airport or City:

Trip Planner

Search our weather history database for the weather conditions in past years. The results will help you decide how hot, cold, wet, or windy it might be!

Date:

Astronomy

May. 14, 2013 Rise Set
Actual Time 4:58 AM EDT 7:59 PM EDT
Civil Twilight 4:22 AM EDT 8:35 PM EDT
Nautical Twilight 3:36 AM EDT 9:21 PM EDT
Astronomical Twilight 2:40 AM EDT 10:18 PM EDT
Moon 8:35 AM EDT (5/14) 11:42 PM EDT (5/14)
Length of Visible Light 16h 13m
Length of Day
15h 01m
Waxing Crescent, 19% of the Moon is Illuminated
May 14
Waxing Crescent
May 18
First Quarter
May 25
Full
May 31
Last Quarter
Jun 8
New

Hourly Weather History & Observations

Time (EDT) Temp. Windchill Dew Point Humidity Pressure Visibility Wind Dir Wind Speed Gust Speed Precip Events Conditions
12:54 AM 37.0 °F 32.4 °F 28.9 °F 73% 29.96 in 10.0 mi WSW 5.8 mph - N/A   Clear
1:54 AM 35.1 °F 31.0 °F 28.0 °F 76% 29.97 in 10.0 mi SW 4.6 mph - N/A   Clear
2:54 AM 33.1 °F 30.0 °F 28.0 °F 82% 29.97 in 10.0 mi SW 3.5 mph - N/A   Clear
3:54 AM 34.0 °F - 28.9 °F 82% 29.97 in 10.0 mi Calm Calm - N/A   Clear
4:54 AM 30.9 °F - 28.0 °F 89% 30.00 in 10.0 mi Calm Calm - N/A   Clear
5:54 AM 32.0 °F - 28.9 °F 88% 30.00 in 10.0 mi Calm Calm - N/A   Clear
6:54 AM 36.0 °F - 32.0 °F 86% 30.01 in 10.0 mi Calm Calm - N/A   Clear
7:54 AM 39.9 °F 36.7 °F 32.0 °F 73% 30.01 in 10.0 mi NNW 4.6 mph - N/A   Clear
8:54 AM 44.1 °F - 32.0 °F 63% 30.01 in 10.0 mi Calm Calm - N/A   Clear
9:54 AM 46.9 °F - 30.9 °F 54% 30.00 in 10.0 mi NW 4.6 mph - N/A   Partly Cloudy
10:54 AM 46.9 °F - 28.9 °F 50% 29.99 in 10.0 mi Calm Calm - N/A   Clear
11:54 AM 48.0 °F - 28.0 °F 46% 29.97 in 10.0 mi Calm Calm - N/A   Overcast
12:54 PM 50.0 °F - 28.0 °F 43% 29.97 in 10.0 mi WNW 5.8 mph - N/A   Overcast
1:54 PM 50.0 °F - 28.9 °F 44% 29.97 in 10.0 mi Variable 5.8 mph - N/A   Overcast
2:54 PM 52.0 °F - 28.9 °F 41% 29.97 in 10.0 mi NW 6.9 mph - 0.00 in   Mostly Cloudy
3:54 PM 51.1 °F - 28.0 °F 41% 29.96 in 10.0 mi Variable 5.8 mph - N/A   Overcast
4:54 PM 53.1 °F - 28.9 °F 40% 29.94 in 10.0 mi NW 8.1 mph - N/A   Clear
5:54 PM 50.0 °F - 30.9 °F 48% 29.94 in 10.0 mi NW 15.0 mph 19.6 mph N/A   Mostly Cloudy
6:54 PM 48.0 °F - 30.9 °F 52% 29.95 in 10.0 mi NW 6.9 mph 17.3 mph N/A   Mostly Cloudy
7:54 PM 46.0 °F 41.9 °F 30.9 °F 56% 29.95 in 10.0 mi WNW 8.1 mph - N/A   Mostly Cloudy
8:54 PM 44.1 °F 41.5 °F 32.0 °F 63% 29.96 in 10.0 mi Variable 4.6 mph - N/A   Overcast
9:54 PM 43.0 °F 38.2 °F 30.9 °F 62% 29.95 in 10.0 mi NW 8.1 mph - N/A   Mostly Cloudy
10:54 PM 42.1 °F 37.1 °F 30.0 °F 62% 29.96 in 10.0 mi NNW 8.1 mph - N/A   Scattered Clouds
11:54 PM 41.0 °F 35.2 °F 30.0 °F 65% 29.94 in 10.0 mi NNW 9.2 mph - N/A   Overcast